AirNav   TITAN Aviation Fuels
 
 748 users online  

4M1 Carroll County Airport
Berryville, Arkansas, USA

GOING TO BERRYVILLE?


FAA INFORMATION EFFECTIVE 03 NOVEMBER 2022

Location

FAA Identifier: 4M1
Lat/Long: 36-22-52.8310N 093-37-28.3450W
36-22.880517N 093-37.472417W
36.3813419,-93.6245403
(estimated)
Elevation: 1205.6 ft. / 367.5 m (surveyed)
Variation: 02E (2010)
From city: 3 miles W of BERRYVILLE, AR
Time zone: UTC -6 (UTC -5 during Daylight Saving Time)
Zip code: 72616

Airport Operations

Airport use: Open to the public
Activation date: 05/1966
Control tower: no
ARTCC: MEMPHIS CENTER
FSS: JONESBORO FLIGHT SERVICE STATION
NOTAMs facility: JBR (NOTAM-D service available)
Attendance: WED - SUN 0800-1700
Wind indicator: lighted
Segmented circle: yes
Lights: ACTVT REIL RWY 07 & 25; PAPI RWY 07 & 25, MIRL RWY 07/25; TWY LGTS - CTAF.
Beacon: white-green (lighted land airport)
Operates sunset to sunrise.

Airport Communications

CTAF: 122.9
RAZORBACK APPROACH: 126.6
RAZORBACK DEPARTURE: 126.6
  • APCH/DEP SVC PRVDD BY MEMPHIS ARTCC ON FREQS 126.1/269.0 (FAYETTEVILLE RCAG) WHEN RAZORBACK APCH CTL CLSD.

Nearby radio navigation aids

VOR radial/distance  VOR name  Freq  Var
HROr277/20.2HARRISON VOR/DME112.5004E
RZCr067/25.3RAZORBACK VORTAC116.4004E

Airport Services

Fuel available: 100LL
100LL:FUEL AVBL 24 HR SELF SERVE WITH CREDIT CARD.
Parking: hangars and tiedowns
Airframe service: MAJOR
Powerplant service: MAJOR
Bottled oxygen: NONE
Bulk oxygen: NONE

Runway Information

Runway 7/25

Dimensions: 3555 x 75 ft. / 1084 x 23 m
Surface: asphalt, in good condition
Weight bearing capacity: 
Single wheel: 12.0
Runway edge lights: medium intensity
RUNWAY 7  RUNWAY 25
Latitude: 36-22.796903N36-22.964125N
Longitude: 093-37.819583W093-37.125227W
Elevation: 1166.9 ft.1205.1 ft.
Traffic pattern: leftleft
Runway heading: 071 magnetic, 073 true251 magnetic, 253 true
Markings: nonprecision, in good conditionnonprecision, in good condition
Visual slope indicator: 2-light PAPI on left (3.00 degrees glide path)2-light PAPI on left (3.00 degrees glide path)
Runway end identifier lights: yesyes
Touchdown point: yes, no lightsyes, no lights
Obstructions: 11 ft. trees, 300 ft. from runway, 215 ft. left of centerline, 9:1 slope to clear23 ft. trees, 600 ft. from runway, 135 ft. left of centerline, 17:1 slope to clear

Airport Ownership and Management from official FAA records

Ownership: Publicly-owned
Owner: CARROLL COUNTY
210 WEST CHURCH ST.
BERRYVILLE, AR 72616
Phone 870-423-2967
Manager: DAVE TEIGEN
518 COUNTY ROAD 308
BERRYVILLE, AR 72616
Phone 870-423-8393

Airport Operational Statistics

Aircraft based on the field: 38
Single engine airplanes: 33
Multi engine airplanes: 4
Jet airplanes: 1
    
Aircraft operations: avg 98/week *
59% transient general aviation
39% local general aviation
2% military
* for 12-month period ending 30 June 2020

Additional Remarks

NO LINE OF SIGHT BTN RY ENDS.
ULTRALIGHT ACTIVITY ON & INVOF ARPT.
DEER ON & INVOF ARPT.
FOR CD CTC RAZORBACK APCH 479-649-2416, WHEN APCH CLSD CTC MEMPHIS ARTCC AT 901-368-8453/8449.

Instrument Procedures

NOTE: All procedures below are presented as PDF files. If you need a reader for these files, you should download the free Adobe Reader.

NOT FOR NAVIGATION. Please procure official charts for flight.
FAA instrument procedures published for use from 03 November 2022 at 0901Z to 01 December 2022 at 0900Z.

 
IAPs - Instrument Approach Procedures
RNAV (GPS) RWY 07   download (243KB)
RNAV (GPS) RWY 25   download (283KB)
NOTE: Special Take-Off Minimums/Departure Procedures apply   download (131KB)

Other nearby airports with instrument procedures:

H34 - Huntsville Municipal Airport (19 nm S)
KFWB - Branson West Municipal Airport - Emerson Field (22 nm NE)
KBBG - Branson Airport (22 nm NE)
94K - Cassville Municipal Airport (23 nm NW)
KROG - Rogers Executive Airport - Carter Field (23 nm W)
 
Loc | Ops | Rwys | IFR | FBO | Links
Com | Nav | Svcs | Stats | Notes

Branson Jet Center
AirBoss

 
Area around 4M1 (Carroll County Airport)
 
Road maps at: MapQuest Bing Google
 
Aerial photo
WARNING: Photo may not be current or correct
Aerial photo of 4M1 (Carroll County Airport)
Photo courtesy of the Arkansas Department of Aeronautics
Taken in the Spring of 2007

Do you have a better or more recent aerial photo of Carroll County Airport that you would like to share? If so, please send us your photo.

 
Sectional chart

 
Airport distance calculator
Flying to Carroll County Airport? Find the distance to fly.

From to 4M1

Sunrise and sunset
Times for 28-Nov-2022
 Local
(UTC-6)
 Zulu
(UTC)
Morning civil twilight06:3812:38
Sunrise07:0613:06
Sunset16:5922:59
Evening civil twilight17:2723:27

Current date and time
Zulu (UTC)  28-Nov-2022 12:49:12
Local (UTC-6)  28-Nov-2022 06:49:12
 
METAR
KFWB 
22nm NE 
281235Z AUTO 00000KT M1/4SM FG OVC002 02/02 A2995 RMK AO2
KROG 
22nm W 
281158Z 5SM CLR 01/00 A2994 RMK AO2 SLP145 T00060000 10033 20006 51009 FZRANO $
KBBG 
22nm NE 
281215Z AUTO 00000KT 10SM CLR 02/02 A2995 RMK AO2
KHRO 
24nm E 
281153Z AUTO 20003KT 8SM CLR 01/00 A2995 RMK AO2 SLP148 70001 T00060000 10061 20000 53014
KASG 
27nm SW 
281148Z 00000KT 4SM BR CLR 01/01 A2994
KVBT 
29nm W 
281205Z AUTO 16003KT 3SM BR CLR M01/M01 A2995 RMK AO2 FZRANO
KXNA 
33nm W 
281239Z 00000KT 3SM BR SCT001 M01/M02 A2994 RMK AO2 T10111017
KFYV 
34nm SW 
281153Z 17003KT 1/4SM FG VV002 01/01 A2995 RMK AO2 SNE1055 SLP145 P0000 60000 T00060006 10056 20006 51008
KHFJ 
37nm NW 
281235Z AUTO 00000KT 10SM CLR 00/00 A2993 RMK AO2
KSLG 
42nm W 
281156Z AUTO 11003KT 4SM BR CLR M01/M01 A2994 RMK AO2 SLP143 T10061006 10039 21011 51005 FZRANO
TAF
KROG 
22nm W 
281120Z 2812/2912 VRB03KT P6SM SKC TEMPO 2812/2813 3SM BR FM281500 17010KT P6SM SKC FM282000 16012G19KT P6SM FEW250 FM290300 17014G24KT P6SM BKN250 WS020/19045KT
KBBG 
22nm NE 
281138Z 2812/2912 VRB05KT P6SM FEW220 FM281600 17005KT P6SM FEW200 FM282200 15007KT P6SM SKC FM290500 16009KT P6SM BKN250 WS020/19040KT FM291100 18010G23KT P6SM BKN230 WS020/21045KT
KHRO 
24nm E 
281126Z 2812/2912 24003KT P6SM SCT250 FM281400 17009KT P6SM SCT250 FM290000 16012G20KT P6SM OVC250
NOTAMs
Click for the latest NOTAMs
NOTAMs are issued by the DoD/FAA and will open in a separate window not controlled by AirNav.

 

 
 

FBO, Fuel Providers, and Aircraft Ground Support

  
 Business Name 
 
 Contact 
 
 Services / Description 
 
Fuel Prices
 
Comments
  
Carroll County Airport 870-423-8393
870-423-2120
[web site]
[email]
Airport management, Aviation fuel, Aircraft parking (ramp or tiedown), Hangars, Hangar leasing / sales, Passenger terminal and lounge, Flight training, ...

More info about Carroll County Airport
Titan
100LL
SS $6.55 
 Updated 16-Nov-2022
 
   1 read write
SS=Self service
Update Fuel Prices
 

Would you like to see your business listed on this page?

 If your business provides an interesting product or service to pilots, flight crews, aircraft, or users of the Carroll County Airport, you should consider listing it here.  To start the listing process, click on the button below
 
Add a business
 

Other Pages about Carroll County Airport

co.carroll.ar.us
Carroll County Airport
 
Update a link
 
Copyright © AirNav, LLC. All rights reserved. Privacy Policy  Contact